EW9555 Weather Reports


Display with metric or nautical units.
time (UTC)temp
F
wind
direction
speed
MPH
gust
MPH
rain 1hr
in
rain 24hr
in
rain mn
in
humidity
%
barometer
mb
20190223061522 40 261 0.0 1.0 0.00 0.84 0.00 79 1030.0
20190223060019 40 342 0.0 0.0 0.00 0.88 0.00 80 1029.7
20190223054515 40 342 0.0 0.0 0.00 0.88 0.00 80 1030.3
20190223053037 40 65 0.0 4.0 0.00 0.88 0.00 81 1030.3
20190223051521 40 272 0.0 0.0 0.01 0.88 0.00 81 1029.9
20190223050021 41 66 0.0 1.0 0.01 0.90 0.88 82 1030.2
20190223044627 41 349 0.0 1.0 0.01 0.90 0.88 81 1030.2
20190223043154 42 286 0.0 4.0 0.01 0.90 0.88 77 1030.3
20190223041738 42 338 0.0 0.0 0.00 0.89 0.87 76 1030.6
20190223040144 42 302 0.0 0.0 0.00 0.89 0.87 76 1030.6
20190223034643 42 324 0.0 0.0 0.00 0.89 0.87 76 1030.3
20190223033203 42 91 0.0 3.0 0.01 0.89 0.87 75 1030.1
20190223031621 43 353 0.0 1.0 0.01 0.89 0.87 75 1030.2
20190223030202 43 93 0.0 2.0 0.01 0.89 0.87 75 1030.1
20190223024744 43 27 0.0 3.0 0.03 0.89 0.87 75 1030.2
20190223023136 43 294 0.0 0.0 0.03 0.88 0.86 74 1030.4
20190223021557 44 294 0.0 1.0 0.04 0.88 0.86 74 1030.2
20190223020131 44 236 0.0 0.0 0.05 0.88 0.86 73 1030.4
20190223014614 44 75 0.0 2.0 0.02 0.85 0.83 73 1030.1
20190223013128 44 347 0.0 0.0 0.03 0.85 0.83 73 1029.7
20190223011617 44 114 0.0 1.0 0.02 0.84 0.82 73 1029.7
20190223010145 44 331 0.0 0.0 0.01 0.83 0.81 73 1029.8
20190223004619 44 331 0.0 0.0 0.03 0.83 0.81 73 1030.0
20190223003145 44 15 0.0 0.0 0.04 0.82 0.80 74 1029.9
20190223001644 44 90 0.0 0.0 0.06 0.82 0.80 74 1029.6
20190223000106 45 90 0.0 0.0 0.07 0.82 0.80 73 1029.4
20190222234627 45 261 0.0 0.0 0.07 0.80 0.78 74 1029.5
20190222233116 45 260 0.0 0.0 0.05 0.77 0.75 74 1029.2
20190222231607 45 61 0.0 0.0 0.05 0.76 0.74 74 1029.0
20190222230110 45 247 0.0 0.0 0.05 0.75 0.73 74 1029.1
20190222224600 45 37 0.0 0.0 0.07 0.73 0.71 75 1028.9
20190222223111 45 18 0.0 0.0 0.08 0.72 0.70 75 1028.9
20190222221635 45 18 0.0 0.0 0.07 0.71 0.69 76 1028.9
20190222220106 45 18 0.0 0.0 0.06 0.70 0.68 76 1029.1
20190222214552 46 18 0.0 0.0 0.02 0.66 0.64 77 1029.0
20190222213055 46 18 0.0 0.0 0.01 0.64 0.62 77 1029.0
20190222211543 46 66 0.0 0.0 0.01 0.64 0.62 78 1028.3
20190222210047 46 360 0.0 0.0 0.01 0.64 0.62 79 1027.9
20190222204550 46 302 0.0 0.0 0.03 0.64 0.62 79 1028.1
20190222203115 46 335 0.0 0.0 0.04 0.63 0.61 79 1028.0
20190222201554 46 335 0.0 0.0 0.04 0.63 0.61 79 1027.8
20190222200041 46 335 0.0 0.0 0.04 0.63 0.61 81 1027.9
20190222194558 46 91 0.0 0.0 0.02 0.61 0.59 83 1027.7
20190222193054 46 135 0.0 0.0 0.00 0.59 0.56 83 1027.8
20190222191550 46 341 0.0 0.0 0.00 0.59 0.56 84 1027.8
20190222190032 46 281 0.0 0.0 0.01 0.59 0.56 84 1028.0
20190222184604 46 95 0.0 4.0 0.01 0.59 0.56 84 1027.9
20190222183121 46 339 0.0 2.0 0.01 0.59 0.56 77 1028.1
20190222181557 46 56 0.0 2.0 0.01 0.59 0.56 76 1028.3
20190222180048 46 112 0.0 2.0 0.01 0.57 0.56 76 1028.9
20190222174541 46 337 0.0 3.0 0.01 0.57 0.56 75 1028.9
20190222173049 46 46 0.0 4.0 0.02 0.57 0.56 76 1029.0
20190222171544 46 313 0.0 2.0 0.02 0.57 0.56 75 1029.0
20190222170014 47 16 0.0 0.0 0.02 0.57 0.55 73 1028.8
20190222164526 47 86 0.0 4.0 0.02 0.57 0.55 73 1028.8
20190222163012 47 49 0.0 2.0 0.03 0.56 0.54 73 1028.9
20190222161519 47 309 0.0 1.0 0.04 0.56 0.54 73 1028.9
20190222160017 47 51 0.0 0.0 0.04 0.61 0.53 73 1028.5
20190222154517 47 342 0.0 0.0 0.06 0.61 0.53 73 1028.3
20190222153005 48 63 0.0 0.0 0.08 0.59 0.51 72 1028.1
20190222151640 48 49 0.0 5.0 0.11 0.57 0.50 71 1027.7
20190222150121 49 11 0.0 0.0 0.11 0.56 0.49 70 1027.4
20190222144737 49 11 0.0 0.0 0.09 0.60 0.47 70 1027.3
20190222143210 49 145 0.0 0.0 0.05 0.56 0.43 70 1026.8
20190222141645 49 220 0.0 0.0 0.02 0.51 0.38 71 1026.9
20190222140232 49 219 0.0 0.0 0.02 0.51 0.38 71 1026.7
20190222134641 48 219 0.0 0.0 0.03 0.51 0.38 71 1026.6
20190222133202 48 219 0.0 0.0 0.04 0.51 0.38 71 1026.6
20190222131639 48 115 0.0 0.0 0.02 0.49 0.36 71 1027.1
20190222130213 48 114 0.0 0.0 0.02 0.49 0.36 71 1026.6
20190222124641 48 114 0.0 0.0 0.02 0.49 0.35 71 1026.0
20190222123200 47 114 0.0 0.0 0.02 0.48 0.34 71 1026.4
20190222121612 47 115 0.0 0.0 0.03 0.48 0.34 72 1026.0
20190222120131 47 115 0.0 0.0 0.05 0.48 0.34 72 1025.9
20190222114632 47 114 0.0 0.0 0.05 0.47 0.33 72 1026.0
20190222113214 47 114 0.0 0.0 0.04 0.46 0.32 72 1025.8
20190222111617 47 114 0.0 0.0 0.03 0.45 0.31 72 1025.4
20190222110242 47 115 0.0 0.0 0.03 0.43 0.28 73 1025.0
20190222104631 47 114 0.0 0.0 0.04 0.42 0.28 73 1024.5
20190222103122 47 114 0.0 0.0 0.04 0.42 0.28 73 1024.3
20190222101552 48 219 0.0 0.0 0.04 0.42 0.28 73 1024.3
20190222100105 48 260 0.0 0.0 0.03 0.40 0.26 72 1024.4
20190222094605 48 260 0.0 0.0 0.02 0.38 0.24 72 1024.7
20190222093125 49 260 0.0 0.0 0.02 0.38 0.24 71 1024.2
20190222091542 49 260 0.0 0.0 0.03 0.38 0.24 71 1024.5
20190222090106 49 356 0.0 0.0 0.02 0.42 0.23 71 1024.7
20190222084553 50 356 0.0 0.0 0.03 0.41 0.22 71 1024.3
20190222083041 49 356 0.0 0.0 0.03 0.41 0.22 71 1024.0
20190222081609 49 356 0.0 0.0 0.04 0.40 0.21 71 1023.6
20190222080031 50 356 0.0 0.0 0.06 0.53 0.20 71 1023.6
20190222074534 50 356 0.0 0.0 0.09 0.52 0.19 71 1024.4
20190222073050 50 356 0.0 0.0 0.10 0.52 0.19 71 1024.5
20190222071549 50 356 0.0 0.0 0.09 0.49 0.16 71 1024.7
20190222070027 51 356 0.0 0.0 0.10 0.47 0.14 70 1024.9
20190222064513 51 356 0.0 0.0 0.09 0.43 0.10 70 1024.3
20190222063024 52 15 0.0 0.0 0.08 0.41 0.08 70 1024.0